Location: Bagnolo San Vito
(45.0833°N, 10.8833°E)
Time: 13:59:54
(UTC+00:00)

Cosmos 2333 - Pass Details

Date: 03 March 2021
Orbit: 829 x 867 km, 70.9° (Epoch: 13 April)

Event Time Altitude Azimuth Distance (km) Brightness Sun altitude
Rises 18:29:54 0° 187° (S) 3,369 7.3 -15.5°
Reaches altitude 10° 18:32:23 10° 181° (S) 2,444 6.5 -15.9°
Maximum altitude 18:37:45 49° 108° (ESE) 1,085 4.3 -16.8°
Drops below altitude 10° 18:43:12 10° 36° (NE) 2,484 6.4 -17.8°
Sets 18:45:44 0° 31° (NNE) 3,430 7.2 -18.2°
